Simultaneous Nadir Overpasses (SNOs) Predictions

Prediction of SNOs between GOES-16 and METOP-C Satellite Orbit:

Table of predicted SNOs for the next 14.0 days since TLE Epoch: 8/14/2020
Index Date Time (GOES-16) GOES-16 Lat,Lon METOP-C Lat,Lon Distance(km) Time Diff (sec)
1 08/15/2020 14:29:25 -0.01, -75.19 -0.06, -74.83 39.71 80
2 08/17/2020 02:51:05 0.00, -75.16 -0.93, -79.44 486.51 80
3 08/18/2020 02:27:45 0.01, -75.16 0.15, -74.43 82.08 80
4 08/19/2020 14:49:16 -0.01, -75.17 0.84, -79.00 436.19 80
5 08/20/2020 14:25:57 -0.02, -75.17 -0.30, -74.01 132.73 80
6 08/22/2020 02:47:36 0.01, -75.15 -0.76, -78.59 392.44 80
7 08/23/2020 02:24:16 0.02, -75.15 0.37, -73.60 176.83 80
8 08/24/2020 14:45:47 -0.01, -75.17 0.66, -78.16 340.17 80
9 08/25/2020 14:22:27 -0.01, -75.17 -0.48, -73.17 229.33 80
10 08/27/2020 02:44:06 0.00, -75.17 -0.59, -77.75 295.10 80
11 08/28/2020 02:20:47 0.01, -75.17 0.55, -72.76 274.63 80
